Time,TemperatureF,DewpointF,PressureIn,WindDirection,WindDirectionDegrees,WindSpeedMPH,WindSpeedGustMPH,Humidity,HourlyPrecipIn,Conditions,Clouds,dailyrainin,SoftwareType,DateUTC
2013-01-08 00:02:00,30.0,22.1,30.49,NW,315,1.1,0.0,72,0.00,,CLR,0.00,VWS V13.01,2013-01-08 05:02:00,
2013-01-08 00:03:00,29.8,22.1,30.49,NW,315,1.1,0.0,72,0.00,,CLR,0.00,VWS V13.01,2013-01-08 05:03:00,
2013-01-08 00:04:00,29.8,22.1,30.48,NW,315,1.1,0.0,72,0.00,,CLR,0.00,VWS V13.01,2013-01-08 05:04:00,
2013-01-08 00:09:00,30.0,21.5,30.48,NW,315,1.1,0.0,72,0.00,,CLR,0.00,VWS V13.01,2013-01-08 05:09:00,
2013-01-08 00:14:00,29.3,21.2,30.48,NW,315,1.1,0.0,72,0.00,,CLR,0.00,VWS V13.01,2013-01-08 05:14:00,
2013-01-08 00:19:00,29.3,21.4,30.48,NW,315,7.1,0.0,72,0.00,,CLR,0.00,VWS V13.01,2013-01-08 05:19:00,
2013-01-08 00:25:00,28.5,21.4,30.48,NW,315,8.5,0.0,74,0.00,,CLR,0.00,VWS V13.01,2013-01-08 05:25:00,
2013-01-08 00:30:00,28.5,21.3,30.48,NW,315,8.5,0.0,74,0.00,,CLR,0.00,VWS V13.01,2013-01-08 05:30:00,
2013-01-08 00:35:00,28.5,21.3,30.48,NW,315,8.5,0.0,74,0.00,,CLR,0.00,VWS V13.01,2013-01-08 05:35:00,
2013-01-08 00:40:00,28.5,21.0,30.48,NW,315,8.5,0.0,74,0.00,,CLR,0.00,VWS V13.01,2013-01-08 05:40:00,
2013-01-08 00:45:00,28.2,21.0,30.48,NW,315,8.5,0.0,74,0.00,,CLR,0.00,VWS V13.01,2013-01-08 05:45:00,
2013-01-08 00:50:00,28.2,20.8,30.48,NW,315,8.5,0.0,74,0.00,,CLR,0.00,VWS V13.01,2013-01-08 05:50:00,
2013-01-08 00:55:00,28.0,20.8,30.47,NW,315,8.5,0.0,75,0.00,,CLR,0.00,VWS V13.01,2013-01-08 05:55:00,
2013-01-08 01:00:00,28.0,21.1,30.47,NW,315,8.5,0.0,75,0.00,,CLR,0.00,VWS V13.01,2013-01-08 06:00:00,
2013-01-08 01:05:00,27.8,21.1,30.47,NW,315,8.5,0.0,75,0.00,,CLR,0.00,VWS V13.01,2013-01-08 06:05:00,
2013-01-08 01:10:00,27.8,20.9,30.47,NW,315,8.5,0.0,75,0.00,,CLR,0.00,VWS V13.01,2013-01-08 06:10:00,
2013-01-08 01:15:00,27.6,20.9,30.47,NW,315,1.1,0.0,75,0.00,,CLR,0.00,VWS V13.01,2013-01-08 06:15:00,
2013-01-08 01:20:00,27.6,20.9,30.47,NW,315,5.8,0.0,75,0.00,,CLR,0.00,VWS V13.01,2013-01-08 06:20:00,
2013-01-08 01:25:00,27.6,20.9,30.47,NW,315,7.6,0.0,75,0.00,,CLR,0.00,VWS V13.01,2013-01-08 06:25:00,
2013-01-08 01:30:00,27.6,20.9,30.47,NW,315,0.8,0.0,76,0.00,,CLR,0.00,VWS V13.01,2013-01-08 06:30:00,
2013-01-08 01:35:00,27.8,21.4,30.48,NW,315,2.2,0.0,75,0.00,,CLR,0.00,VWS V13.01,2013-01-08 06:35:00,
2013-01-08 01:40:00,27.6,21.7,30.47,NW,315,2.2,0.0,77,0.00,,CLR,0.00,VWS V13.01,2013-01-08 06:40:00,
2013-01-08 01:45:00,28.0,21.9,30.47,NW,315,2.2,0.0,77,0.00,,CLR,0.00,VWS V13.01,2013-01-08 06:45:00,
2013-01-08 01:51:00,28.5,21.7,30.47,NW,315,2.0,0.0,77,0.00,,CLR,0.00,VWS V13.01,2013-01-08 06:51:00,
2013-01-08 01:56:00,28.9,22.6,30.48,NW,315,0.2,0.0,77,0.00,,CLR,0.00,VWS V13.01,2013-01-08 06:56:00,
2013-01-08 02:01:00,28.9,22.6,30.48,NW,315,0.2,0.0,77,0.00,,CLR,0.00,VWS V13.01,2013-01-08 07:01:00,
2013-01-08 02:06:00,28.9,22.1,30.49,NW,315,0.2,0.0,77,0.00,,CLR,0.00,VWS V13.01,2013-01-08 07:06:00,
2013-01-08 02:11:00,28.9,21.9,30.48,NW,315,0.2,0.0,77,0.00,,CLR,0.00,VWS V13.01,2013-01-08 07:11:00,
2013-01-08 02:16:00,28.9,21.8,30.48,NW,315,0.6,0.0,77,0.00,,CLR,0.00,VWS V13.01,2013-01-08 07:16:00,
2013-01-08 02:21:00,28.2,21.4,30.48,NW,315,3.5,0.0,76,0.00,,CLR,0.00,VWS V13.01,2013-01-08 07:21:00,
2013-01-08 02:26:00,27.8,21.0,30.48,NW,315,5.1,0.0,76,0.00,,CLR,0.00,VWS V13.01,2013-01-08 07:26:00,
2013-01-08 02:31:00,27.8,20.9,30.48,NW,315,1.5,0.0,76,0.00,,CLR,0.00,VWS V13.01,2013-01-08 07:31:00,
2013-01-08 02:36:00,27.8,20.8,30.48,NW,315,1.5,0.0,76,0.00,,CLR,0.00,VWS V13.01,2013-01-08 07:36:00,
2013-01-08 02:41:00,27.1,21.2,30.48,NW,315,6.9,0.0,77,0.00,,CLR,0.00,VWS V13.01,2013-01-08 07:41:00,
2013-01-08 02:46:00,27.8,20.9,30.49,NW,315,1.7,0.0,76,0.00,,CLR,0.00,VWS V13.01,2013-01-08 07:46:00,
2013-01-08 02:51:00,26.9,21.0,30.49,NW,315,3.1,0.0,78,0.00,,CLR,0.00,VWS V13.01,2013-01-08 07:51:00,
2013-01-08 02:56:00,27.1,21.0,30.49,NW,315,4.9,0.0,78,0.00,,CLR,0.00,VWS V13.01,2013-01-08 07:56:00,
2013-01-08 03:01:00,27.1,21.2,30.49,NW,315,2.2,0.0,78,0.00,,CLR,0.00,VWS V13.01,2013-01-08 08:01:00,
2013-01-08 03:06:00,27.1,21.2,30.49,NW,315,6.4,0.0,78,0.00,,CLR,0.00,VWS V13.01,2013-01-08 08:06:00,
2013-01-08 03:11:00,26.9,21.0,30.49,NW,315,4.4,0.0,78,0.00,,CLR,0.00,VWS V13.01,2013-01-08 08:11:00,
2013-01-08 03:16:00,26.7,20.8,30.49,NW,315,5.5,0.0,78,0.00,,CLR,0.00,VWS V13.01,2013-01-08 08:16:00,
2013-01-08 03:21:00,26.7,20.8,30.49,NW,315,3.3,0.0,78,0.00,,CLR,0.00,VWS V13.01,2013-01-08 08:21:00,
2013-01-08 03:26:00,26.6,20.7,30.49,NW,315,2.0,0.0,78,0.00,,CLR,0.00,VWS V13.01,2013-01-08 08:26:00,
2013-01-08 03:32:00,26.6,20.7,30.48,NW,315,3.8,0.0,78,0.00,,CLR,0.00,VWS V13.01,2013-01-08 08:32:00,
2013-01-08 03:37:00,26.4,20.8,30.48,NW,315,5.8,0.0,78,0.00,,CLR,0.00,VWS V13.01,2013-01-08 08:37:00,
2013-01-08 03:42:00,26.4,20.8,30.48,NW,315,3.3,0.0,79,0.00,,CLR,0.00,VWS V13.01,2013-01-08 08:42:00,
2013-01-08 03:47:00,26.4,20.8,30.48,NW,315,1.1,0.0,79,0.00,,CLR,0.00,VWS V13.01,2013-01-08 08:47:00,
2013-01-08 03:52:00,26.4,20.8,30.48,NW,315,3.1,0.0,79,0.00,,CLR,0.00,VWS V13.01,2013-01-08 08:52:00,
2013-01-08 03:57:00,26.4,20.8,30.48,NW,315,1.5,0.0,79,0.00,,CLR,0.00,VWS V13.01,2013-01-08 08:57:00,
2013-01-08 04:02:00,26.4,20.8,30.48,NW,315,8.7,0.0,79,0.00,,CLR,0.00,VWS V13.01,2013-01-08 09:02:00,
2013-01-08 04:07:00,26.4,20.8,30.48,NW,315,2.4,0.0,79,0.00,,CLR,0.00,VWS V13.01,2013-01-08 09:07:00,
2013-01-08 04:12:00,26.4,20.8,30.48,NW,315,1.3,0.0,79,0.00,,CLR,0.00,VWS V13.01,2013-01-08 09:12:00,
2013-01-08 04:17:00,26.4,20.8,30.48,NW,315,6.2,0.0,79,0.00,,CLR,0.00,VWS V13.01,2013-01-08 09:17:00,
2013-01-08 04:22:00,26.4,20.6,30.48,NW,315,5.1,0.0,79,0.00,,CLR,0.00,VWS V13.01,2013-01-08 09:22:00,
2013-01-08 04:27:00,26.0,20.2,30.49,NW,315,7.8,0.0,79,0.00,,CLR,0.00,VWS V13.01,2013-01-08 09:27:00,
2013-01-08 04:32:00,25.8,20.5,30.49,NW,315,8.7,0.0,79,0.00,,CLR,0.00,VWS V13.01,2013-01-08 09:32:00,
2013-01-08 04:37:00,25.8,20.2,30.48,NW,315,4.4,0.0,80,0.00,,CLR,0.00,VWS V13.01,2013-01-08 09:37:00,
2013-01-08 04:42:00,25.8,20.5,30.48,NW,315,2.2,0.0,79,0.00,,CLR,0.00,VWS V13.01,2013-01-08 09:42:00,
2013-01-08 04:47:00,25.8,20.2,30.48,NW,315,3.5,0.0,80,0.00,,CLR,0.00,VWS V13.01,2013-01-08 09:47:00,
2013-01-08 04:52:00,25.8,20.4,30.48,NW,315,3.5,0.0,80,0.00,,CLR,0.00,VWS V13.01,2013-01-08 09:52:00,
2013-01-08 04:57:00,25.7,20.7,30.48,NW,315,7.3,0.0,80,0.00,,CLR,0.00,VWS V13.01,2013-01-08 09:57:00,
2013-01-08 05:02:00,25.7,20.7,30.48,NW,315,7.3,0.0,81,0.00,,CLR,0.00,VWS V13.01,2013-01-08 10:02:00,
2013-01-08 05:07:00,25.7,20.7,30.48,NW,315,7.6,0.0,81,0.00,,CLR,0.00,VWS V13.01,2013-01-08 10:07:00,
2013-01-08 05:12:00,25.7,20.7,30.47,NW,315,2.0,0.0,81,0.00,,CLR,0.00,VWS V13.01,2013-01-08 10:12:00,
2013-01-08 05:17:00,25.8,20.8,30.48,NW,315,2.0,0.0,81,0.00,,CLR,0.00,VWS V13.01,2013-01-08 10:17:00,
2013-01-08 05:22:00,25.8,20.8,30.48,NW,315,3.3,0.0,81,0.00,,CLR,0.00,VWS V13.01,2013-01-08 10:22:00,
2013-01-08 05:27:00,25.8,20.7,30.49,NW,315,6.7,0.0,81,0.00,,CLR,0.00,VWS V13.01,2013-01-08 10:27:00,
2013-01-08 05:32:00,25.8,20.8,30.48,NW,315,7.1,0.0,81,0.00,,CLR,0.00,VWS V13.01,2013-01-08 10:32:00,
2013-01-08 05:37:00,25.8,20.8,30.49,NW,315,7.6,0.0,81,0.00,,CLR,0.00,VWS V13.01,2013-01-08 10:37:00,
2013-01-08 05:42:00,25.8,21.1,30.48,NW,315,5.3,0.0,82,0.00,,CLR,0.00,VWS V13.01,2013-01-08 10:42:00,
2013-01-08 05:47:00,25.8,21.1,30.48,NW,315,4.6,0.0,82,0.00,,CLR,0.00,VWS V13.01,2013-01-08 10:47:00,
2013-01-08 05:52:00,25.7,21.0,30.49,NW,315,3.8,0.0,82,0.00,,CLR,0.00,VWS V13.01,2013-01-08 10:52:00,
2013-01-08 05:57:00,25.5,20.7,30.49,NW,315,8.2,0.0,82,0.00,,CLR,0.00,VWS V13.01,2013-01-08 10:57:00,
2013-01-08 06:03:00,25.5,20.8,30.49,NW,315,2.4,0.0,82,0.00,,CLR,0.00,VWS V13.01,2013-01-08 11:03:00,
2013-01-08 06:08:00,25.5,20.8,30.49,NW,315,8.2,0.0,82,0.00,,CLR,0.00,VWS V13.01,2013-01-08 11:08:00,
2013-01-08 06:13:00,25.5,20.8,30.49,NNW,338,14.7,0.0,82,0.00,,CLR,0.00,VWS V13.01,2013-01-08 11:13:00,
2013-01-08 06:18:00,25.5,20.8,30.49,NNW,338,2.4,0.0,82,0.00,,CLR,0.00,VWS V13.01,2013-01-08 11:18:00,
2013-01-08 06:23:00,25.5,21.1,30.49,NNW,338,2.4,0.0,82,0.00,,CLR,0.00,VWS V13.01,2013-01-08 11:23:00,
2013-01-08 06:28:00,25.5,21.3,30.48,NNW,338,1.5,0.0,82,0.00,,CLR,0.00,VWS V13.01,2013-01-08 11:28:00,
2013-01-08 06:33:00,25.7,21.3,30.49,NNW,338,5.8,0.0,83,0.00,,CLR,0.00,VWS V13.01,2013-01-08 11:33:00,
2013-01-08 06:38:00,25.7,21.3,30.49,NNW,338,7.6,0.0,83,0.00,,CLR,0.00,VWS V13.01,2013-01-08 11:38:00,
2013-01-08 06:43:00,25.5,21.3,30.49,NNW,338,1.5,0.0,83,0.00,,CLR,0.00,VWS V13.01,2013-01-08 11:43:00,
2013-01-08 06:48:00,25.7,21.1,30.49,NNW,338,4.0,0.0,83,0.00,,CLR,0.00,VWS V13.01,2013-01-08 11:48:00,
2013-01-08 06:53:00,25.7,21.1,30.49,NNW,338,0.8,0.0,83,0.00,,CLR,0.00,VWS V13.01,2013-01-08 11:53:00,
2013-01-08 06:58:00,25.7,21.5,30.49,NNW,338,1.7,0.0,83,0.00,,CLR,0.00,VWS V13.01,2013-01-08 11:58:00,
2013-01-08 07:03:00,25.7,21.5,30.49,NNW,338,8.7,0.0,84,0.00,,CLR,0.00,VWS V13.01,2013-01-08 12:03:00,
2013-01-08 07:08:00,25.8,21.6,30.49,NNW,338,4.2,0.0,84,0.00,,CLR,0.00,VWS V13.01,2013-01-08 12:08:00,
2013-01-08 07:13:00,25.8,21.3,30.49,NNW,338,5.3,0.0,84,0.00,,CLR,0.00,VWS V13.01,2013-01-08 12:13:00,
2013-01-08 07:18:00,25.7,21.3,30.50,NNW,338,2.6,0.0,83,0.00,,CLR,0.00,VWS V13.01,2013-01-08 12:18:00,
2013-01-08 07:23:00,25.5,21.3,30.49,NNW,338,8.5,0.0,83,0.00,,CLR,0.00,VWS V13.01,2013-01-08 12:23:00,
2013-01-08 07:28:00,25.3,21.1,30.50,NNW,338,9.8,0.0,83,0.00,,CLR,0.00,VWS V13.01,2013-01-08 12:28:00,
2013-01-08 07:33:00,25.1,21.1,30.49,NNW,338,7.3,0.0,83,0.00,,CLR,0.00,VWS V13.01,2013-01-08 12:33:00,
2013-01-08 07:38:00,25.1,20.7,30.49,NNW,338,3.3,0.0,83,0.00,,CLR,0.00,VWS V13.01,2013-01-08 12:38:00,
2013-01-08 07:43:00,25.1,20.7,30.49,NNW,338,4.2,0.0,83,0.00,,CLR,0.00,VWS V13.01,2013-01-08 12:43:00,
2013-01-08 07:48:00,25.1,21.1,30.50,NNW,338,6.9,0.0,83,0.00,,CLR,0.00,VWS V13.01,2013-01-08 12:48:00,
2013-01-08 07:53:00,25.3,21.1,30.49,NNW,338,0.2,0.0,84,0.00,,CLR,0.00,VWS V13.01,2013-01-08 12:53:00,
2013-01-08 07:59:00,25.3,20.9,30.49,NNW,338,4.9,0.0,84,0.00,,CLR,0.00,VWS V13.01,2013-01-08 12:59:00,
2013-01-08 08:04:00,25.3,21.1,30.49,NNW,338,6.0,0.0,84,0.00,,CLR,0.00,VWS V13.01,2013-01-08 13:04:00,
2013-01-08 08:09:00,25.3,21.1,30.50,NNW,338,5.5,0.0,84,0.00,,CLR,0.00,VWS V13.01,2013-01-08 13:09:00,
2013-01-08 08:14:00,25.5,21.1,30.51,NNW,338,2.4,0.0,83,0.00,,CLR,0.00,VWS V13.01,2013-01-08 13:14:00,
2013-01-08 08:19:00,25.3,21.1,30.51,NNW,338,2.4,0.0,84,0.00,,CLR,0.00,VWS V13.01,2013-01-08 13:19:00,
2013-01-08 08:24:00,25.5,21.4,30.51,NNW,338,2.4,0.0,84,0.00,,CLR,0.00,VWS V13.01,2013-01-08 13:24:00,
2013-01-08 08:29:00,25.5,21.6,30.52,NNW,338,2.4,0.0,84,0.00,,CLR,0.00,VWS V13.01,2013-01-08 13:29:00,
2013-01-08 08:34:00,25.5,21.8,30.52,NNW,338,2.4,0.0,84,0.00,,CLR,0.00,VWS V13.01,2013-01-08 13:34:00,
2013-01-08 08:39:00,26.2,22.2,30.52,NNW,338,2.4,0.0,84,0.00,,CLR,0.00,VWS V13.01,2013-01-08 13:39:00,
2013-01-08 08:44:00,26.4,22.7,30.53,NNW,338,2.4,0.0,84,0.00,,CLR,0.00,VWS V13.01,2013-01-08 13:44:00,
2013-01-08 08:49:00,26.4,23.3,30.53,NNW,338,2.4,0.0,84,0.00,,CLR,0.00,VWS V13.01,2013-01-08 13:49:00,
2013-01-08 08:54:00,26.4,24.1,30.53,NNW,338,2.4,0.0,84,0.00,,CLR,0.00,VWS V13.01,2013-01-08 13:54:00,
2013-01-08 08:59:00,28.2,25.2,30.53,NNW,338,2.4,0.0,85,0.00,,CLR,0.00,VWS V13.01,2013-01-08 13:59:00,
2013-01-08 09:04:00,29.4,27.5,30.53,NNW,338,2.4,0.0,85,0.00,,CLR,0.00,VWS V13.01,2013-01-08 14:04:00,
2013-01-08 09:09:00,31.6,29.4,30.53,NNW,338,2.4,0.0,86,0.00,,CLR,0.00,VWS V13.01,2013-01-08 14:09:00,
2013-01-08 09:14:00,33.9,30.3,30.53,NNW,338,2.4,0.0,85,0.00,,CLR,0.00,VWS V13.01,2013-01-08 14:14:00,
2013-01-08 09:19:00,35.7,30.6,30.52,NNW,338,2.4,0.0,81,0.00,,CLR,0.00,VWS V13.01,2013-01-08 14:19:00,
2013-01-08 09:24:00,35.7,31.0,30.52,NNW,338,2.4,0.0,81,0.00,,CLR,0.00,VWS V13.01,2013-01-08 14:24:00,
2013-01-08 09:29:00,35.7,31.2,30.52,NNW,338,2.4,0.0,81,0.00,,CLR,0.00,VWS V13.01,2013-01-08 14:29:00,
2013-01-08 09:34:00,38.4,31.2,30.52,NNW,338,2.4,0.0,75,0.00,,CLR,0.00,VWS V13.01,2013-01-08 14:34:00,
2013-01-08 09:39:00,38.4,31.0,30.52,North,0,2.4,0.0,75,0.00,,CLR,0.00,VWS V13.01,2013-01-08 14:39:00,
2013-01-08 09:44:00,38.4,30.4,30.52,North,0,2.4,0.0,75,0.00,,CLR,0.00,VWS V13.01,2013-01-08 14:44:00,
2013-01-08 09:49:00,39.3,29.7,30.52,North,0,2.4,0.0,70,0.00,,CLR,0.00,VWS V13.01,2013-01-08 14:49:00,
2013-01-08 09:54:00,38.8,29.0,30.52,NNW,338,1.5,0.0,69,0.00,,CLR,0.00,VWS V13.01,2013-01-08 14:54:00,
2013-01-08 09:59:00,38.3,28.8,30.53,NNW,338,1.5,0.0,68,0.00,,CLR,0.00,VWS V13.01,2013-01-08 14:59:00,
2013-01-08 10:04:00,37.7,28.6,30.53,NNW,338,1.5,0.0,68,0.00,,CLR,0.00,VWS V13.01,2013-01-08 15:04:00,
2013-01-08 10:09:00,37.7,27.9,30.53,NNW,338,1.5,0.0,68,0.00,,CLR,0.00,VWS V13.01,2013-01-08 15:09:00,
2013-01-08 10:14:00,37.7,28.8,30.53,NNW,338,1.5,0.0,68,0.00,,CLR,0.00,VWS V13.01,2013-01-08 15:14:00,
2013-01-08 10:19:00,37.9,29.2,30.53,NNW,338,1.5,0.0,70,0.00,,CLR,0.00,VWS V13.01,2013-01-08 15:19:00,
2013-01-08 10:24:00,37.9,29.5,30.53,NNW,338,1.5,0.0,70,0.00,,CLR,0.00,VWS V13.01,2013-01-08 15:24:00,
2013-01-08 10:29:00,38.8,30.0,30.53,NNW,338,1.5,0.0,69,0.00,,CLR,0.00,VWS V13.01,2013-01-08 15:29:00,
2013-01-08 10:34:00,39.3,30.2,30.53,NNW,338,1.5,0.0,69,0.00,,CLR,0.00,VWS V13.01,2013-01-08 15:34:00,
2013-01-08 10:39:00,39.9,30.0,30.53,NNW,338,1.5,0.0,68,0.00,,CLR,0.00,VWS V13.01,2013-01-08 15:39:00,
2013-01-08 10:44:00,40.2,30.1,30.53,NNW,338,1.5,0.0,67,0.00,,CLR,0.00,VWS V13.01,2013-01-08 15:44:00,
2013-01-08 10:49:00,40.4,30.7,30.53,NNW,338,1.5,0.0,67,0.00,,CLR,0.00,VWS V13.01,2013-01-08 15:49:00,
2013-01-08 10:54:00,40.8,30.6,30.52,NNW,338,1.5,0.0,67,0.00,,CLR,0.00,VWS V13.01,2013-01-08 15:54:00,
2013-01-08 10:59:00,41.3,30.7,30.53,WNW,292,1.5,0.0,65,0.00,,CLR,0.00,VWS V13.01,2013-01-08 15:59:00,
2013-01-08 11:04:00,41.5,30.6,30.53,West,270,1.5,0.0,65,0.00,,CLR,0.00,VWS V13.01,2013-01-08 16:04:00,
2013-01-08 11:09:00,41.5,29.9,30.53,WNW,292,3.3,0.0,65,0.00,,CLR,0.00,VWS V13.01,2013-01-08 16:09:00,
2013-01-08 11:14:00,41.5,29.0,30.52,WNW,292,3.3,0.0,65,0.00,,CLR,0.00,VWS V13.01,2013-01-08 16:14:00,
2013-01-08 11:19:00,39.9,30.6,30.52,WNW,292,3.3,0.0,64,0.00,,CLR,0.00,VWS V13.01,2013-01-08 16:19:00,
2013-01-08 11:24:00,39.9,30.6,30.52,WNW,292,3.3,0.0,65,0.00,,CLR,0.00,VWS V13.01,2013-01-08 16:24:00,
2013-01-08 11:29:00,39.9,29.1,30.52,WNW,292,3.3,0.0,65,0.00,,CLR,0.00,VWS V13.01,2013-01-08 16:29:00,
2013-01-08 11:34:00,40.6,29.4,30.51,WNW,292,3.3,0.0,65,0.00,,CLR,0.00,VWS V13.01,2013-01-08 16:34:00,
2013-01-08 11:39:00,40.2,30.4,30.51,WNW,292,3.3,0.0,65,0.00,,CLR,0.00,VWS V13.01,2013-01-08 16:39:00,
2013-01-08 11:44:00,42.0,29.4,30.51,WNW,292,3.3,0.0,64,0.00,,CLR,0.00,VWS V13.01,2013-01-08 16:44:00,
2013-01-08 11:49:00,40.2,30.3,30.50,WNW,292,3.3,0.0,65,0.00,,CLR,0.00,VWS V13.01,2013-01-08 16:49:00,
2013-01-08 11:54:00,42.6,30.5,30.50,WNW,292,3.3,0.0,62,0.00,,CLR,0.00,VWS V13.01,2013-01-08 16:54:00,
2013-01-08 11:59:00,42.6,30.4,30.49,WNW,292,3.3,0.0,62,0.00,,CLR,0.00,VWS V13.01,2013-01-08 16:59:00,
2013-01-08 12:04:00,42.6,30.4,30.50,West,270,3.3,0.0,62,0.00,,CLR,0.00,VWS V13.01,2013-01-08 17:04:00,
2013-01-08 12:09:00,42.6,30.0,30.50,WSW,248,2.9,0.0,62,0.00,,CLR,0.00,VWS V13.01,2013-01-08 17:09:00,
2013-01-08 12:14:00,43.1,29.6,30.50,West,270,4.4,0.0,59,0.00,,CLR,0.00,VWS V13.01,2013-01-08 17:14:00,
2013-01-08 12:19:00,43.1,29.3,30.50,West,270,3.1,0.0,59,0.00,,CLR,0.00,VWS V13.01,2013-01-08 17:19:00,
2013-01-08 12:24:00,43.1,29.3,30.50,WSW,248,0.8,0.0,59,0.00,,CLR,0.00,VWS V13.01,2013-01-08 17:24:00,
2013-01-08 12:29:00,41.7,29.3,30.50,SW,225,5.8,0.0,61,0.00,,CLR,0.00,VWS V13.01,2013-01-08 17:29:00,
2013-01-08 12:34:00,41.7,29.1,30.50,SW,225,0.8,0.0,60,0.00,,CLR,0.00,VWS V13.01,2013-01-08 17:34:00,
2013-01-08 12:39:00,41.7,29.5,30.50,WSW,248,4.9,0.0,60,0.00,,CLR,0.00,VWS V13.01,2013-01-08 17:39:00,
2013-01-08 12:44:00,42.6,29.3,30.49,WSW,248,4.2,0.0,59,0.00,,CLR,0.00,VWS V13.01,2013-01-08 17:44:00,
2013-01-08 12:49:00,42.9,29.3,30.49,WSW,248,5.8,0.0,58,0.00,,CLR,0.00,VWS V13.01,2013-01-08 17:49:00,
2013-01-08 12:54:00,42.6,29.2,30.49,SSW,202,3.8,0.0,58,0.00,,CLR,0.00,VWS V13.01,2013-01-08 17:54:00,
2013-01-08 12:59:00,42.6,29.3,30.49,SSW,202,0.8,0.0,58,0.00,,CLR,0.00,VWS V13.01,2013-01-08 17:59:00,
2013-01-08 13:04:00,42.9,30.1,30.48,WSW,248,0.8,0.0,59,0.00,,CLR,0.00,VWS V13.01,2013-01-08 18:04:00,
2013-01-08 13:09:00,44.2,29.6,30.48,WSW,248,6.7,0.0,59,0.00,,CLR,0.00,VWS V13.01,2013-01-08 18:09:00,
2013-01-08 13:14:00,44.7,29.6,30.48,SW,225,2.9,0.0,59,0.00,,CLR,0.00,VWS V13.01,2013-01-08 18:14:00,
2013-01-08 13:19:00,42.9,31.2,30.48,SSW,202,2.6,0.0,59,0.00,,CLR,0.00,VWS V13.01,2013-01-08 18:19:00,
2013-01-08 13:24:00,45.1,31.0,30.48,SW,225,3.1,0.0,58,0.00,,CLR,0.00,VWS V13.01,2013-01-08 18:24:00,
2013-01-08 13:29:00,45.3,30.7,30.48,WSW,248,6.7,0.0,57,0.00,,CLR,0.00,VWS V13.01,2013-01-08 18:29:00,
2013-01-08 13:34:00,45.6,30.8,30.48,WNW,292,0.8,0.0,56,0.00,,CLR,0.00,VWS V13.01,2013-01-08 18:34:00,
2013-01-08 13:39:00,46.0,30.8,30.48,West,270,0.8,0.0,56,0.00,,CLR,0.00,VWS V13.01,2013-01-08 18:39:00,
2013-01-08 13:44:00,45.6,30.4,30.48,West,270,2.6,0.0,56,0.00,,CLR,0.00,VWS V13.01,2013-01-08 18:44:00,
2013-01-08 13:49:00,45.6,29.5,30.47,West,270,3.8,0.0,56,0.00,,CLR,0.00,VWS V13.01,2013-01-08 18:49:00,
2013-01-08 13:54:00,45.6,29.7,30.48,West,270,1.5,0.0,56,0.00,,CLR,0.00,VWS V13.01,2013-01-08 18:54:00,
2013-01-08 13:59:00,44.7,29.3,30.48,SSW,202,0.6,0.0,55,0.00,,CLR,0.00,VWS V13.01,2013-01-08 18:59:00,
2013-01-08 14:04:00,44.9,29.5,30.48,West,270,3.3,0.0,55,0.00,,CLR,0.00,VWS V13.01,2013-01-08 19:04:00,
2013-01-08 14:09:00,44.6,30.1,30.49,WSW,248,6.4,0.0,55,0.00,,CLR,0.00,VWS V13.01,2013-01-08 19:09:00,
2013-01-08 14:14:00,45.3,29.5,30.48,West,270,2.6,0.0,55,0.00,,CLR,0.00,VWS V13.01,2013-01-08 19:14:00,
2013-01-08 14:19:00,45.3,29.3,30.49,WNW,292,2.4,0.0,55,0.00,,CLR,0.00,VWS V13.01,2013-01-08 19:19:00,
2013-01-08 14:24:00,44.6,30.1,30.47,SW,225,1.1,0.0,54,0.00,,CLR,0.00,VWS V13.01,2013-01-08 19:24:00,
2013-01-08 14:29:00,44.6,29.7,30.47,West,270,2.4,0.0,55,0.00,,CLR,0.00,VWS V13.01,2013-01-08 19:29:00,
2013-01-08 14:34:00,45.1,30.4,30.47,SW,225,4.2,0.0,55,0.00,,CLR,0.00,VWS V13.01,2013-01-08 19:34:00,
2013-01-08 14:39:00,46.5,30.8,30.47,SSW,202,5.8,0.0,54,0.00,,CLR,0.00,VWS V13.01,2013-01-08 19:39:00,
2013-01-08 14:44:00,46.7,30.6,30.47,SW,225,1.5,0.0,54,0.00,,CLR,0.00,VWS V13.01,2013-01-08 19:44:00,
2013-01-08 14:49:00,47.4,30.6,30.47,SSE,158,5.1,0.0,51,0.00,,CLR,0.00,VWS V13.01,2013-01-08 19:49:00,
2013-01-08 14:54:00,48.0,30.8,30.47,SW,225,2.4,0.0,50,0.00,,CLR,0.00,VWS V13.01,2013-01-08 19:54:00,
2013-01-08 15:00:00,48.0,30.3,30.47,SSW,202,2.4,0.0,50,0.00,,CLR,0.00,VWS V13.01,2013-01-08 20:00:00,
2013-01-08 15:05:00,48.0,30.0,30.47,SSW,202,2.4,0.0,50,0.00,,CLR,0.00,VWS V13.01,2013-01-08 20:05:00,
2013-01-08 15:10:00,48.5,30.4,30.47,SSW,202,1.7,0.0,49,0.00,,CLR,0.00,VWS V13.01,2013-01-08 20:10:00,
2013-01-08 15:15:00,48.9,30.6,30.47,WSW,248,2.6,0.0,49,0.00,,CLR,0.00,VWS V13.01,2013-01-08 20:15:00,
2013-01-08 15:20:00,48.9,30.1,30.48,West,270,1.5,0.0,49,0.00,,CLR,0.00,VWS V13.01,2013-01-08 20:20:00,
2013-01-08 15:25:00,48.9,30.3,30.48,South,180,4.6,0.0,48,0.00,,CLR,0.00,VWS V13.01,2013-01-08 20:25:00,
2013-01-08 15:30:00,49.1,29.8,30.47,WSW,248,4.6,0.0,48,0.00,,CLR,0.00,VWS V13.01,2013-01-08 20:30:00,
2013-01-08 15:35:00,49.1,29.8,30.47,SW,225,4.6,0.0,47,0.00,,CLR,0.00,VWS V13.01,2013-01-08 20:35:00,
2013-01-08 15:40:00,49.1,29.8,30.47,South,180,5.8,0.0,47,0.00,,CLR,0.00,VWS V13.01,2013-01-08 20:40:00,
2013-01-08 15:45:00,49.1,28.0,30.47,SSW,202,1.7,0.0,47,0.00,,CLR,0.00,VWS V13.01,2013-01-08 20:45:00,
2013-01-08 15:50:00,48.9,27.2,30.48,WNW,292,1.1,0.0,44,0.00,,CLR,0.00,VWS V13.01,2013-01-08 20:50:00,
2013-01-08 15:55:00,48.9,26.3,30.48,SW,225,6.0,0.0,44,0.00,,CLR,0.00,VWS V13.01,2013-01-08 20:55:00,
2013-01-08 16:00:00,48.3,26.6,30.48,SE,135,0.8,0.0,42,0.00,,CLR,0.00,VWS V13.01,2013-01-08 21:00:00,
2013-01-08 16:05:00,48.2,26.0,30.48,South,180,0.8,0.0,43,0.00,,CLR,0.00,VWS V13.01,2013-01-08 21:05:00,
2013-01-08 16:10:00,48.0,26.6,30.48,SSE,158,0.8,0.0,42,0.00,,CLR,0.00,VWS V13.01,2013-01-08 21:10:00,
2013-01-08 16:15:00,48.0,26.0,30.48,SSW,202,3.1,0.0,43,0.00,,CLR,0.00,VWS V13.01,2013-01-08 21:15:00,
2013-01-08 16:20:00,48.0,26.0,30.48,SW,225,3.1,0.0,43,0.00,,CLR,0.00,VWS V13.01,2013-01-08 21:20:00,
2013-01-08 16:25:00,48.0,26.6,30.48,WSW,248,3.1,0.0,43,0.00,,CLR,0.00,VWS V13.01,2013-01-08 21:25:00,
2013-01-08 16:30:00,48.0,26.0,30.48,WSW,248,3.1,0.0,43,0.00,,CLR,0.00,VWS V13.01,2013-01-08 21:30:00,
2013-01-08 16:35:00,48.0,26.4,30.48,WSW,248,3.1,0.0,43,0.00,,CLR,0.00,VWS V13.01,2013-01-08 21:35:00,
2013-01-08 16:40:00,47.8,25.8,30.48,West,270,2.2,0.0,43,0.00,,CLR,0.00,VWS V13.01,2013-01-08 21:40:00,
2013-01-08 16:45:00,47.1,25.2,30.49,West,270,21.9,0.0,43,0.00,,CLR,0.00,VWS V13.01,2013-01-08 21:45:00,
2013-01-08 16:50:00,46.5,25.5,30.49,SW,225,4.0,0.0,43,0.00,,CLR,0.00,VWS V13.01,2013-01-08 21:50:00,
2013-01-08 16:55:00,46.2,25.5,30.49,SW,225,4.0,0.0,44,0.00,,CLR,0.00,VWS V13.01,2013-01-08 21:55:00,
2013-01-08 17:00:00,46.2,25.5,30.49,SW,225,4.0,0.0,44,0.00,,CLR,0.00,VWS V13.01,2013-01-08 22:00:00,
2013-01-08 17:05:00,46.0,25.3,30.49,SW,225,4.0,0.0,44,0.00,,CLR,0.00,VWS V13.01,2013-01-08 22:05:00,
2013-01-08 17:10:00,46.0,25.5,30.49,SW,225,4.0,0.0,44,0.00,,CLR,0.00,VWS V13.01,2013-01-08 22:10:00,
2013-01-08 17:15:00,45.6,25.5,30.49,SW,225,4.0,0.0,45,0.00,,CLR,0.00,VWS V13.01,2013-01-08 22:15:00,
2013-01-08 17:20:00,45.6,25.4,30.49,SW,225,4.0,0.0,45,0.00,,CLR,0.00,VWS V13.01,2013-01-08 22:20:00,
2013-01-08 17:25:00,45.6,25.0,30.49,SW,225,4.0,0.0,45,0.00,,CLR,0.00,VWS V13.01,2013-01-08 22:25:00,
2013-01-08 17:30:00,45.6,25.2,30.49,SW,225,4.0,0.0,45,0.00,,CLR,0.00,VWS V13.01,2013-01-08 22:30:00,
2013-01-08 17:35:00,44.7,24.9,30.49,SW,225,4.0,0.0,46,0.00,,CLR,0.00,VWS V13.01,2013-01-08 22:35:00,
2013-01-08 17:40:00,44.7,24.4,30.49,SW,225,4.0,0.0,46,0.00,,CLR,0.00,VWS V13.01,2013-01-08 22:40:00,
2013-01-08 17:45:00,44.7,24.6,30.49,SW,225,4.0,0.0,46,0.00,,CLR,0.00,VWS V13.01,2013-01-08 22:45:00,
2013-01-08 17:50:00,44.7,24.6,30.49,SW,225,4.0,0.0,46,0.00,,CLR,0.00,VWS V13.01,2013-01-08 22:50:00,
2013-01-08 17:55:00,42.9,24.1,30.49,SW,225,4.0,0.0,48,0.00,,CLR,0.00,VWS V13.01,2013-01-08 22:55:00,
2013-01-08 18:00:00,42.4,24.0,30.48,SW,225,4.0,0.0,48,0.00,,CLR,0.00,VWS V13.01,2013-01-08 23:00:00,
2013-01-08 18:05:00,41.5,23.6,30.48,SW,225,4.0,0.0,49,0.00,,CLR,0.00,VWS V13.01,2013-01-08 23:05:00,
2013-01-08 18:10:00,41.5,23.1,30.48,SW,225,4.0,0.0,49,0.00,,CLR,0.00,VWS V13.01,2013-01-08 23:10:00,
2013-01-08 18:15:00,40.2,23.1,30.48,SW,225,4.0,0.0,50,0.00,,CLR,0.00,VWS V13.01,2013-01-08 23:15:00,
2013-01-08 18:20:00,40.2,23.2,30.48,SW,225,4.0,0.0,50,0.00,,CLR,0.00,VWS V13.01,2013-01-08 23:20:00,
2013-01-08 18:25:00,39.3,22.9,30.48,SW,225,4.0,0.0,52,0.00,,CLR,0.00,VWS V13.01,2013-01-08 23:25:00,
2013-01-08 18:30:00,39.0,23.1,30.48,SW,225,4.0,0.0,52,0.00,,CLR,0.00,VWS V13.01,2013-01-08 23:30:00,
2013-01-08 18:35:00,38.8,22.7,30.48,SW,225,4.0,0.0,53,0.00,,CLR,0.00,VWS V13.01,2013-01-08 23:35:00,
2013-01-08 18:40:00,38.8,22.8,30.48,SW,225,4.0,0.0,53,0.00,,CLR,0.00,VWS V13.01,2013-01-08 23:40:00,
2013-01-08 18:45:00,38.8,22.8,30.48,SW,225,4.0,0.0,53,0.00,,CLR,0.00,VWS V13.01,2013-01-08 23:45:00,
2013-01-08 18:50:00,37.7,23.1,30.48,SW,225,4.0,0.0,54,0.00,,CLR,0.00,VWS V13.01,2013-01-08 23:50:00,
2013-01-08 18:55:00,37.4,22.8,30.48,SW,225,4.0,0.0,55,0.00,,CLR,0.00,VWS V13.01,2013-01-08 23:55:00,
2013-01-08 19:00:00,37.2,22.5,30.48,SW,225,4.0,0.0,55,0.00,,CLR,0.00,VWS V13.01,2013-01-09 00:00:00,
2013-01-08 19:05:00,37.0,22.8,30.48,SW,225,4.0,0.0,55,0.00,,CLR,0.00,VWS V13.01,2013-01-09 00:05:00,
2013-01-08 19:10:00,36.8,22.6,30.48,SW,225,4.0,0.0,56,0.00,,CLR,0.00,VWS V13.01,2013-01-09 00:10:00,
2013-01-08 19:15:00,36.6,22.4,30.48,SW,225,4.0,0.0,56,0.00,,CLR,0.00,VWS V13.01,2013-01-09 00:15:00,
2013-01-08 19:20:00,36.6,22.7,30.48,SW,225,4.0,0.0,57,0.00,,CLR,0.00,VWS V13.01,2013-01-09 00:20:00,
2013-01-08 19:26:00,36.3,22.8,30.48,SW,225,4.0,0.0,57,0.00,,CLR,0.00,VWS V13.01,2013-01-09 00:26:00,
2013-01-08 19:31:00,36.3,22.4,30.48,SW,225,4.0,0.0,57,0.00,,CLR,0.00,VWS V13.01,2013-01-09 00:31:00,
2013-01-08 19:36:00,36.1,22.4,30.49,SW,225,4.0,0.0,57,0.00,,CLR,0.00,VWS V13.01,2013-01-09 00:36:00,
2013-01-08 19:41:00,36.1,22.4,30.49,SW,225,4.0,0.0,57,0.00,,CLR,0.00,VWS V13.01,2013-01-09 00:41:00,
2013-01-08 19:46:00,35.9,22.6,30.49,SW,225,4.0,0.0,58,0.00,,CLR,0.00,VWS V13.01,2013-01-09 00:46:00,
2013-01-08 19:51:00,35.7,22.4,30.49,SW,225,4.0,0.0,58,0.00,,CLR,0.00,VWS V13.01,2013-01-09 00:51:00,
2013-01-08 19:56:00,35.6,21.7,30.49,SW,225,4.0,0.0,58,0.00,,CLR,0.00,VWS V13.01,2013-01-09 00:56:00,
2013-01-08 20:01:00,35.6,21.9,30.49,SW,225,4.0,0.0,58,0.00,,CLR,0.04,VWS V13.01,2013-01-09 01:01:00,
2013-01-08 20:06:00,35.7,22.0,30.49,SW,225,4.0,0.0,57,0.00,,CLR,0.00,VWS V13.01,2013-01-09 01:06:00,
2013-01-08 20:11:00,35.7,22.4,30.49,SW,225,4.0,0.0,58,0.00,,CLR,0.00,VWS V13.01,2013-01-09 01:11:00,
2013-01-08 20:16:00,35.7,22.4,30.49,SW,225,4.0,0.0,58,0.00,,CLR,0.00,VWS V13.01,2013-01-09 01:16:00,
2013-01-08 20:21:00,35.4,22.5,30.49,SW,225,4.0,0.0,58,0.00,,CLR,0.00,VWS V13.01,2013-01-09 01:21:00,
2013-01-08 20:26:00,35.4,22.5,30.50,SW,225,4.0,0.0,59,0.00,,CLR,0.00,VWS V13.01,2013-01-09 01:26:00,
2013-01-08 20:31:00,35.4,22.3,30.50,SW,225,4.0,0.0,59,0.00,,CLR,0.00,VWS V13.01,2013-01-09 01:31:00,
2013-01-08 20:36:00,35.4,22.3,30.50,SW,225,4.0,0.0,59,0.00,,CLR,0.00,VWS V13.01,2013-01-09 01:36:00,
2013-01-08 20:41:00,35.2,22.3,30.50,SW,225,4.0,0.0,59,0.00,,CLR,0.00,VWS V13.01,2013-01-09 01:41:00,
2013-01-08 20:46:00,35.0,22.0,30.50,WSW,248,4.0,0.0,59,0.00,,CLR,0.00,VWS V13.01,2013-01-09 01:46:00,
2013-01-08 20:51:00,34.8,22.3,30.50,WSW,248,4.0,0.0,60,0.00,,CLR,0.00,VWS V13.01,2013-01-09 01:51:00,
2013-01-08 20:56:00,34.7,22.3,30.50,WSW,248,4.0,0.0,60,0.00,,CLR,0.00,VWS V13.01,2013-01-09 01:56:00,
2013-01-08 21:01:00,34.5,22.1,30.50,WSW,248,4.0,0.0,60,0.00,,CLR,0.00,VWS V13.01,2013-01-09 02:01:00,
2013-01-08 21:06:00,34.1,21.9,30.50,WSW,248,4.0,0.0,60,0.00,,CLR,0.00,VWS V13.01,2013-01-09 02:06:00,
2013-01-08 21:11:00,33.9,21.9,30.50,WSW,248,4.0,0.0,61,0.00,,CLR,0.00,VWS V13.01,2013-01-09 02:11:00,
2013-01-08 21:17:00,33.6,21.9,30.50,WSW,248,4.0,0.0,61,0.00,,CLR,0.00,VWS V13.01,2013-01-09 02:17:00,
2013-01-08 21:22:00,33.6,21.6,30.50,WSW,248,4.0,0.0,61,0.00,,CLR,0.00,VWS V13.01,2013-01-09 02:22:00,
2013-01-08 21:27:00,33.6,22.0,30.50,WSW,248,4.0,0.0,62,0.00,,CLR,0.00,VWS V13.01,2013-01-09 02:27:00,
2013-01-08 21:32:00,33.6,22.0,30.50,WSW,248,4.0,0.0,62,0.00,,CLR,0.00,VWS V13.01,2013-01-09 02:32:00,
2013-01-08 21:37:00,33.6,22.0,30.50,WSW,248,4.0,0.0,62,0.00,,CLR,0.00,VWS V13.01,2013-01-09 02:37:00,
2013-01-08 21:42:00,33.6,22.0,30.50,WSW,248,4.0,0.0,62,0.00,,CLR,0.00,VWS V13.01,2013-01-09 02:42:00,
2013-01-08 21:47:00,33.6,22.0,30.50,WSW,248,4.0,0.0,62,0.00,,CLR,0.00,VWS V13.01,2013-01-09 02:47:00,
2013-01-08 21:52:00,33.6,22.0,30.50,WSW,248,4.0,0.0,62,0.00,,CLR,0.00,VWS V13.01,2013-01-09 02:52:00,
2013-01-08 21:57:00,33.6,22.0,30.50,WSW,248,4.0,0.0,62,0.00,,CLR,0.00,VWS V13.01,2013-01-09 02:57:00,
2013-01-08 22:02:00,33.6,22.0,30.50,WSW,248,4.0,0.0,62,0.00,,CLR,0.00,VWS V13.01,2013-01-09 03:02:00,
2013-01-08 22:07:00,33.6,22.0,30.50,WSW,248,4.0,0.0,62,0.00,,CLR,0.00,VWS V13.01,2013-01-09 03:07:00,
2013-01-08 22:12:00,33.6,22.0,30.50,WSW,248,4.0,0.0,62,0.00,,CLR,0.00,VWS V13.01,2013-01-09 03:12:00,
2013-01-08 22:17:00,33.6,22.2,30.50,WSW,248,4.0,0.0,62,0.00,,CLR,0.00,VWS V13.01,2013-01-09 03:17:00,
2013-01-08 22:22:00,33.6,22.0,30.50,WSW,248,4.0,0.0,62,0.00,,CLR,0.00,VWS V13.01,2013-01-09 03:22:00,
2013-01-08 22:27:00,33.6,22.4,30.50,WSW,248,4.0,0.0,63,0.00,,CLR,0.00,VWS V13.01,2013-01-09 03:27:00,
2013-01-08 22:32:00,33.6,22.2,30.50,WSW,248,4.0,0.0,63,0.00,,CLR,0.00,VWS V13.01,2013-01-09 03:32:00,
2013-01-08 22:37:00,33.4,22.2,30.49,WSW,248,4.0,0.0,63,0.00,,CLR,0.00,VWS V13.01,2013-01-09 03:37:00,
2013-01-08 22:42:00,33.6,22.4,30.49,WSW,248,4.0,0.0,63,0.00,,CLR,0.00,VWS V13.01,2013-01-09 03:42:00,
2013-01-08 22:47:00,33.6,22.4,30.50,WSW,248,4.0,0.0,63,0.00,,CLR,0.00,VWS V13.01,2013-01-09 03:47:00,
2013-01-08 22:52:00,33.4,22.2,30.50,WSW,248,4.0,0.0,63,0.00,,CLR,0.00,VWS V13.01,2013-01-09 03:52:00,
2013-01-08 22:57:00,33.4,21.6,30.50,WSW,248,4.0,0.0,62,0.00,,CLR,0.00,VWS V13.01,2013-01-09 03:57:00,
2013-01-08 23:02:00,33.4,21.8,30.50,WSW,248,4.0,0.0,62,0.00,,CLR,0.00,VWS V13.01,2013-01-09 04:02:00,
2013-01-08 23:07:00,33.4,21.8,30.50,WSW,248,4.0,0.0,62,0.00,,CLR,0.00,VWS V13.01,2013-01-09 04:07:00,
2013-01-08 23:12:00,33.4,22.2,30.50,WSW,248,4.0,0.0,63,0.00,,CLR,0.00,VWS V13.01,2013-01-09 04:12:00,
2013-01-08 23:17:00,33.4,22.2,30.51,WSW,248,4.0,0.0,63,0.00,,CLR,0.00,VWS V13.01,2013-01-09 04:17:00,
2013-01-08 23:22:00,33.4,22.0,30.50,WSW,248,4.0,0.0,63,0.00,,CLR,0.00,VWS V13.01,2013-01-09 04:22:00,
2013-01-08 23:27:00,33.0,21.8,30.51,WSW,248,4.0,0.0,63,0.00,,CLR,0.00,VWS V13.01,2013-01-09 04:27:00,
2013-01-08 23:32:00,33.0,21.7,30.51,WSW,248,4.0,0.0,63,0.00,,CLR,0.00,VWS V13.01,2013-01-09 04:32:00,
2013-01-08 23:37:00,32.9,21.9,30.51,WSW,248,4.0,0.0,63,0.00,,CLR,0.00,VWS V13.01,2013-01-09 04:37:00,
2013-01-08 23:42:00,32.7,21.9,30.51,WSW,248,4.0,0.0,64,0.00,,CLR,0.00,VWS V13.01,2013-01-09 04:42:00,
2013-01-08 23:47:00,32.7,21.9,30.51,WSW,248,4.0,0.0,64,0.00,,CLR,0.00,VWS V13.01,2013-01-09 04:47:00,
2013-01-08 23:52:00,32.5,22.1,30.50,WSW,248,4.0,0.0,65,0.00,,SCT049,0.00,VWS V13.01,2013-01-09 04:52:00,
2013-01-08 23:57:00,32.5,22.1,30.50,WSW,248,4.0,0.0,65,0.00,,SCT049,0.00,VWS V13.01,2013-01-09 04:57:00,